Sigfox identifier Datetime Temperature Humidity SNR
003B9EA9 2018-10-09 09:13:03 20.7 38 14.7
003B9EA9 2018-10-09 08:06:07 20.7 38 14.9
003B9EA9 2018-10-09 06:59:13 20.7 38 15
003B9EA9 2018-10-09 05:52:14 20.7 38 15.2
003B9EA9 2018-10-09 04:45:16 20.7 38 15.2
003B9EA9 2018-10-09 01:24:13 20.7 37 14.7
003B9EA9 2018-10-09 00:17:13 20.7 37 14.9
003B9EA9 2018-10-08 23:10:12 20.7 37 14.6
003B9EA9 2018-10-08 22:03:09 20.7 37 14.6
003B9EA9 2018-10-08 20:56:10 20.7 37 14.4
003B9EA9 2018-10-08 19:49:16 20.6 37 14.3
003B9EA9 2018-10-08 18:42:13 20.6 36 14.2
003B9EA9 2018-10-08 17:35:14 20.7 36 14.1
003B9EA9 2018-10-08 16:28:13 20.5 36 14
003B9EA9 2018-10-08 15:21:17 20.6 36 13.9
003B9EA9 2018-10-08 14:14:13 20.5 36 13.7
003B9EA9 2018-10-08 13:07:14 20.5 36 13.3
003B9EA9 2018-10-08 12:00:15 20.4 35 13.7
003B9EA9 2018-10-08 10:53:15 20.3 32 13.9
003B9EA9 2018-10-08 09:46:15 20.2 31 13.9
003B9EA9 2018-10-08 08:39:08 20.1 30 14.2
003B9EA9 2018-10-08 07:32:05 20.2 32 14.2
003B9EA9 2018-10-08 06:25:06 20.2 33 14.1
003B9EA9 2018-10-08 05:18:05 20.2 33 14.3
003B9EA9 2018-10-08 04:11:06 20.2 33 14
003B9EA9 2018-10-08 03:04:05 20.2 34 14.3
003B9EA9 2018-10-08 01:57:04 20.3 35 13.7
003B9EA9 2018-10-08 00:50:00 20.3 35 13.8
003B9EA9 2018-10-07 23:42:58 20.3 36 13.8
003B9EA9 2018-10-07 22:35:57 20.3 36 14.4
003B9EA9 2018-10-07 21:29:02 20.4 37 15
003B9EA9 2018-10-07 20:22:05 20.5 38 15.1
003B9EA9 2018-10-07 19:15:06 20.5 38 16
003B9EA9 2018-10-07 18:08:07 20.5 38 15.9
003B9EA9 2018-10-07 17:01:08 20.5 38 16.1
003B9EA9 2018-10-07 15:54:09 20.4 38 16.3
003B9EA9 2018-10-07 14:47:13 20.4 38 16.5
003B9EA9 2018-10-07 13:40:15 20.5 38 16.6
003B9EA9 2018-10-07 12:33:14 20.5 38 16.6
003B9EA9 2018-10-07 11:26:13 20.5 38 16.6
003B9EA9 2018-10-07 10:19:11 20.5 38 16.7
003B9EA9 2018-10-07 09:12:09 20.5 38 16.9
003B9EA9 2018-10-07 08:05:06 20.5 38 17.3
003B9EA9 2018-10-07 06:58:00 20.5 38 17.1
003B9EA9 2018-10-07 05:50:58 20.5 39 17.3
003B9EA9 2018-10-07 04:43:57 20.5 39 17.4
003B9EA9 2018-10-07 03:36:56 20.6 39 17.8
003B9EA9 2018-10-07 02:29:58 20.7 39 17.8
003B9EA9 2018-10-07 01:22:55 20.6 40 17.7
003B9EA9 2018-10-07 00:15:54 20.7 40 17.8
003B9EA9 2018-10-06 23:08:54 20.7 40 17.8
003B9EA9 2018-10-06 22:01:52 20.7 40 18
003B9EA9 2018-10-06 20:54:53 20.7 40 18.1
003B9EA9 2018-10-06 19:47:52 20.7 39 18.3
003B9EA9 2018-10-06 18:40:51 20.7 39 18
003B9EA9 2018-10-06 17:33:54 20.7 39 17.7
003B9EA9 2018-10-06 16:26:52 20.7 40 17.8
003B9EA9 2018-10-06 15:19:50 20.7 40 17.3
003B9EA9 2018-10-06 14:12:51 20.7 40 17.4
003B9EA9 2018-10-06 13:05:51 20.7 40 17.4
003B9EA9 2018-10-06 11:58:54 20.7 39 17.4
003B9EA9 2018-10-06 10:51:59 20.7 39 17.3
003B9EA9 2018-10-06 09:45:03 20.7 39 17.5
003B9EA9 2018-10-06 08:38:07 20.8 39 17.7
003B9EA9 2018-10-06 07:31:10 20.9 40 17.8
003B9EA9 2018-10-06 06:24:11 20.9 40 17.9
003B9EA9 2018-10-06 05:17:12 20.9 40 17.8
003B9EA9 2018-10-06 04:10:13 20.9 41 17.2
003B9EA9 2018-10-06 03:03:18 20.9 41 17.5
003B9EA9 2018-10-06 01:56:22 21 42 17.4
003B9EA9 2018-10-06 00:49:22 21.1 42 17.3
003B9EA9 2018-10-05 23:42:25 21.1 43 16.7
003B9EA9 2018-10-05 22:35:29 21.1 43 17
003B9EA9 2018-10-05 21:28:28 21.2 44 17.5
003B9EA9 2018-10-05 20:21:29 21.3 44 17.9
003B9EA9 2018-10-05 19:14:32 21.3 45 17.5
003B9EA9 2018-10-05 18:07:34 21.5 45 17.3
003B9EA9 2018-10-05 17:00:36 21.5 46 16.6
003B9EA9 2018-10-05 15:53:37 21.5 46 13.7
003B9EA9 2018-10-05 14:46:36 21.8 46 16.4
003B9EA9 2018-10-05 13:39:36 21.8 59 0